Miscellaneous Local Product
Issued by NWS North Platte, NE

Home | Current Version | Previous Version | Text Only | Print | Product List | Glossary On
Versions: 1 2 3 4 5 6 7 8 9 10 11 12 13 14 15 16 17 18 19 20 21 22 23 24 25 26 27 28 29 30 31 32 33 34 35 36 37 38 39 40 41 42 43 44 45 46 47 48 49 50
000
AXUS43 KLBF 060510
MISLBF


WESTERN AND NORTH CENTRAL NEBRASKA HOURLY WEATHER ROUNDUP
NATIONAL WEATHER SERVICE NORTH PLATTE NE
1100 PM CST THU MAR 05 2015

***STATIONS NOT REPORTING VARIABLES SUCH AS SKY/WEATHER OR
PRESSURE ARE PROVIDED BY THE NEBRASKA DEPARTMENT OF
ROADS...RAWS...AND APRS NETWORKS...AND ARE NOT UNDER
NATIONAL WEATHER SERVICE QUALITY CONTROL***

...OBSERVATIONS IN AND NEAR THE EASTERN PANHANDLE OF NEBRASKA...

CITY           SKY/WX    TMP DP  RH WIND       PRES   REMARKS
PINE RIDGE     CLEAR     27  19  72 SW8       30.19R WCI  19
CHADRON        PTCLDY    29  20  69 W9        30.20R WCI  20
ALLIANCE       CLEAR     22  16  78 W12       30.21R WCI  10
SIDNEY         CLEAR     29  19  66 W12       30.25R WCI  19
WHITECLAY        N/A     26  18  72 SE3         N/A
CRESCENT LAKE    N/A     28  11  48 W7          N/A  WCI  21
LISCO            N/A     30  16  55 W10         N/A  WCI  21
BIG SPRINGS      N/A     25  19  77 W7          N/A  WCI  17
LEWELLEN         N/A     18   6  58 CALM        N/A
$$

...OBSERVATIONS IN NORTH CENTRAL NEBRASKA...

CITY           SKY/WX    TMP DP  RH WIND       PRES   REMARKS
VALENTINE      CLEAR     29  20  69 W9        30.16S WCI  20
THEDFORD       CLEAR     28  15  56 W7        30.20R WCI  21
AINSWORTH      CLEAR     29  17  59 W9        30.16S WCI  21
O`NEILL        CLEAR     29  12  49 S8        30.17S WCI  21
ORD            CLEAR     21   9  59 CALM      30.19F
BROKEN BOW     CLEAR     27  10  49 SW5       30.19S WCI  22
BROWNLEE         N/A     32  12  43 W12         N/A  WCI  23
SPRINGVIEW       N/A     22  12  65 CALM        N/A
BREWSTER         N/A     29  15  58 W3          N/A
ROSE             N/A     33  19  54 S3          N/A
NEWPORT          N/A     29  18  63 SW8         N/A  WCI  21
SARGENT          N/A     22  12  65 CALM        N/A
COMSTOCK         N/A     33  11  39 SW9         N/A  WCI  25
CHAMBERS         N/A     26   6  43 S6          N/A  WCI  19
EWING            N/A     31  10  41 S7          N/A  WCI  24
$$

...OBSERVATIONS IN SOUTHWEST NEBRASKA AND FAR NORTHEAST COLORADO...

CITY           SKY/WX    TMP DP  RH WIND       PRES   REMARKS
WRAY           FAIR      28  19  71 W7        30.27S WCI  20
HOLYOKE        FAIR      27  19  74 W7        30.26R WCI  19
IMPERIAL         N/A     30  14  51 W9        30.25S WCI  22
OGALLALA       CLEAR     27  16  64 W3        30.24R
NORTH PLATTE   CLEAR     20  10  65 NW6       30.23S WCI  12
MCCOOK         CLEAR     29  15  56 W8        30.25R WCI  21
LEXINGTON      CLEAR     21  11  64 NW6       30.22S WCI  14
PAXTON           N/A     27  15  61 CALM        N/A
BRADY            N/A     24  11  58 CALM        N/A
GOTHENBURG       N/A     30  12  46 W3          N/A
CALLAWAY         N/A     29  14  52 NW6         N/A  WCI  23
$$

...NORTH PLATTE AREA...

CITY           SKY/WX    TMP DP  RH WIND       PRES   REMARKS
AIRPORT        CLEAR     20  10  65 NW6       30.23S WCI  12
DOWNTOWN         N/A     29  13  51 CALM        N/A
$$

...SOME WEATHER OBSERVATIONS FROM AROUND THE REGION...

CITY           SKY/WX    TMP DP  RH WIND       PRES   REMARKS
DENVER         PTCLDY    28  19  69 S10       30.26S WCI  19
LARAMIE        PTCLDY    20  10  65 VRB5      30.25R WCI  13
CHEYENNE       MOCLDY    31  14  49 SW8       30.23S WCI  23
SCOTTSBLUFF    CLEAR     27  18  69 N5        30.23S WCI  22
RAPID CITY     CLEAR     28  15  58 W5        30.13F WCI  23
PIERRE         CLEAR     25  18  74 SW8       30.11R WCI  16
WINNER         FAIR      31  19  61 W12       30.14S WCI  22
SIOUX FALLS    CLEAR     22   8  55 S16       30.17F WCI   8
OMAHA          MOCLDY    25   7  46 S17       30.34F WCI  12
GRAND ISLAND   CLEAR     32   7  35 S15       30.22F WCI  22
KANSAS CITY    CLEAR     22  13  68 S12       30.44F WCI  10
WICHITA        PTCLDY    31  20  63 S10       30.43F WCI  22
HAYS           CLEAR     30  10  43 SW9       30.31F WCI  22
LIBERAL        CLEAR     28  18  64 SW9       30.35S WCI  20
GOODLAND       CLEAR     29  20  69 W9        30.29S WCI  20
$$



USA.gov is the U.S. government's official web portal to all federal, state and local government web resources and services.